GW4137 Weather Reports


time (UTC)temp
C
wind
direction
speed
KPH
gust
KPH
rain 1hr
cm
rain 24hr
cm
rain mn
cm
humidity
%
barometer
mb
20260901230053 28 181 9.7 17.7 0.00 0.00 0.00 21 1008.8
20260901224604 28 113 11.3 22.5 0.00 0.00 0.00 22 1008.9
20260901223055 28 153 4.8 16.1 0.00 0.00 0.00 22 1009.2
20260901221604 27 178 12.9 17.7 0.00 0.00 0.00 23 1009.2
20260901220057 27 150 3.2 22.5 0.00 0.00 0.00 24 1009.4
20260901214601 27 142 9.7 17.7 0.00 0.00 0.00 24 1009.6
20260901213058 27 67 3.2 14.5 0.00 0.00 0.00 24 1009.8
20260901211600 27 153 6.4 19.3 0.00 0.00 0.00 25 1010.0
20260901210112 26 138 0.0 17.7 0.00 0.00 0.00 25 1010.2
20260901204551 27 176 12.9 22.5 0.00 0.00 0.00 25 1010.4
20260901203102 26 172 11.3 20.9 0.00 0.00 0.00 26 1010.5
20260901201554 26 141 9.7 19.3 0.00 0.00 0.00 26 1010.7
20260901200056 26 159 4.8 17.7 0.00 0.00 0.00 26 1010.8
20260901194555 26 155 8.0 20.9 0.00 0.00 0.00 26 1011.0
20260901193054 25 160 8.0 22.5 0.00 0.00 0.00 27 1011.2
20260901191602 25 189 8.0 22.5 0.00 0.00 0.00 28 1011.2
20260901190059 25 115 12.9 25.7 0.00 0.00 0.00 28 1011.5
20260901184605 25 182 11.3 25.7 0.00 0.00 0.00 28 1011.6
20260901183105 24 180 14.5 27.4 0.00 0.00 0.00 30 1011.8
20260901181552 23 126 14.5 27.4 0.00 0.00 0.00 31 1012.0
20260901180059 23 152 12.9 24.1 0.00 0.00 0.00 32 1012.1
20260901174554 23 144 14.5 24.1 0.00 0.00 0.00 33 1012.2
20260901173055 22 157 14.5 27.4 0.00 0.00 0.00 35 1012.3
20260901171603 22 131 16.1 24.1 0.00 0.00 0.00 35 1012.6
20260901170056 21 162 17.7 24.1 0.00 0.00 0.00 36 1012.8
20260901164555 20 117 14.5 22.5 0.00 0.00 0.00 40 1012.7
20260901163057 19 151 16.1 24.1 0.00 0.00 0.00 42 1012.9
20260901161617 19 135 14.5 22.5 0.00 0.00 0.00 43 1012.9
20260901160104 18 118 12.9 22.5 0.00 0.00 0.00 44 1012.8
20260901154615 18 131 14.5 24.1 0.00 0.00 0.00 46 1012.8
20260901153109 18 123 17.7 24.1 0.00 0.00 0.00 47 1012.9
20260901151551 17 122 16.1 22.5 0.00 0.00 0.00 49 1012.9
20260901150109 17 138 12.9 20.9 0.00 0.00 0.00 51 1013.2
20260901144555 16 140 11.3 19.3 0.00 0.00 0.00 54 1013.3
20260901143108 15 140 9.7 16.1 0.00 0.00 0.00 57 1013.1
20260901141604 13 160 4.8 8.0 0.00 0.00 0.00 63 1013.1
20260901140100 13 160 4.8 8.0 0.00 0.00 0.00 65 1013.0
20260901134554 11 160 0.0 8.0 0.00 0.00 0.00 70 1012.8
20260901133104 10 160 3.2 6.4 0.00 0.00 0.00 72 1012.5
20260901131557 10 0 0.0 6.4 0.00 0.00 0.00 75 1012.4
20260901130059 9 160 4.8 8.0 0.00 0.00 0.00 74 1012.6
20260901124554 8 160 3.2 8.0 0.00 0.00 0.00 78 1012.8
20260901123054 8 0 0.0 6.4 0.00 0.00 0.00 75 1012.9
20260901121558 9 0 1.6 6.4 0.00 0.00 0.00 71 1012.7
20260901120109 10 0 0.0 3.2 0.00 0.00 0.00 70 1012.6
20260901114552 9 0 0.0 1.6 0.00 0.00 0.00 72 1012.6
20260901113101 10 0 0.0 6.4 0.00 0.00 0.00 69 1012.7
20260901111601 10 0 0.0 6.4 0.00 0.00 0.00 67 1012.9
20260901110053 11 0 0.0 6.4 0.00 0.00 0.00 66 1012.9
20260901104601 11 160 6.4 9.7 0.00 0.00 0.00 64 1012.7
20260901103104 12 167 6.4 8.0 0.00 0.00 0.00 63 1012.8
20260901101554 12 0 4.8 6.4 0.00 0.00 0.00 64 1013.1
20260901100055 11 0 0.0 9.7 0.00 0.00 0.00 69 1013.1
20260901094559 8 169 6.4 9.7 0.00 0.00 0.00 74 1013.0
20260901093056 8 169 4.8 8.0 0.00 0.00 0.00 73 1013.0
20260901091604 9 169 4.8 8.0 0.00 0.00 0.00 71 1013.0
20260901084607 8 169 4.8 8.0 0.00 0.00 0.00 71 1013.1
20260901083103 8 169 4.8 9.7 0.00 0.00 0.00 71 1013.1
20260901081556 9 169 6.4 9.7 0.00 0.00 0.00 70 1013.2
20260901080107 10 169 4.8 8.0 0.00 0.00 0.00 67 1013.4
20260901074556 9 169 6.4 8.0 0.00 0.00 0.00 69 1013.6
20260901073100 9 0 0.0 0.0 0.00 0.00 0.00 68 1013.7
20260901071602 9 0 0.0 6.4 0.00 0.00 0.00 69 1013.8
20260901070100 9 169 6.4 8.0 0.00 0.00 0.00 67 1013.7
20260901064603 10 169 3.2 8.0 0.00 0.00 0.00 67 1013.8
20260901063058 10 169 4.8 8.0 0.00 0.00 0.00 66 1013.8
20260901061555 11 169 3.2 8.0 0.00 0.00 0.00 63 1014.0
20260901060101 12 169 6.4 9.7 0.00 0.00 0.00 57 1013.9
20260901054553 14 0 0.0 8.0 0.00 0.00 0.00 53 1014.0
20260901053106 14 169 0.0 6.4 0.00 0.00 0.00 52 1014.2
20260901051555 14 169 1.6 9.7 0.00 0.00 0.00 53 1014.1
20260901050055 13 0 0.0 0.0 0.00 0.00 0.00 55 1014.1
20260901044607 13 0 0.0 3.2 0.00 0.00 0.00 55 1014.2
20260901043100 13 0 0.0 3.2 0.00 0.00 0.00 55 1014.1
20260901041555 14 169 1.6 6.4 0.00 0.00 0.00 52 1014.0
20260901040057 15 0 0.0 6.4 0.00 0.00 0.00 49 1014.0
20260901034556 14 169 1.6 3.2 0.00 0.00 0.00 51 1014.0
20260901033054 15 0 0.0 0.0 0.00 0.00 0.00 49 1013.7
20260901031601 15 0 0.0 0.0 0.00 0.00 0.00 49 1013.7
20260901030057 15 0 0.0 0.0 0.00 0.00 0.00 48 1013.5
20260901024614 15 0 0.0 0.0 0.00 0.00 0.00 47 1013.3
20260901023100 16 0 0.0 3.2 0.00 0.00 0.00 43 1013.3
20260901021603 18 0 0.0 6.4 0.00 0.00 0.00 40 1013.2
20260901020100 20 0 0.0 3.2 0.00 0.00 0.00 38 1013.4
20260901014606 21 169 3.2 8.0 0.00 0.00 0.00 35 1013.5
20260901013117 22 169 4.8 9.7 0.00 0.00 0.00 32 1013.5
20260901011613 23 169 4.8 9.7 0.00 0.00 0.00 31 1013.5
20260901010123 23 169 4.8 14.5 0.00 0.00 0.00 30 1013.6
20260901004603 23 169 8.0 17.7 0.00 0.00 0.00 30 1013.7
20260901003057 23 169 9.7 19.3 0.00 0.00 0.00 30 1013.8
20260901001600 23 147 9.7 16.1 0.00 0.00 0.00 30 1013.9
20260831234630 24 182 3.2 12.9 0.00 0.00 0.00 30 1014.0
20260831233058 23 191 4.8 16.1 0.00 0.00 0.00 31 1014.0
20260831231552 23 0 0.0 14.5 0.00 0.00 0.00 30 1014.0